Tracking 32412 objects as of 7-Dec-2025
HD Live streaming from Space Station
objects crossing your sky now

USA 229 DEB

Track USA 229 DEB now!
10-day predictions
USA 229 DEB is classified as:


NORAD ID: 37391
Int'l Code: 2011-014B
Perigee: 870.3 km
Apogee: 1,355.3 km
Inclination: 63.4 °
Period: 107.4 minutes
Semi major axis: 7483 km
RCS: Unknown
Launch date: April 15, 2011
Source: United States (US)
Launch site: AIR FORCE WESTERN TEST RANGE (AFWTR)

Note: This is SATELLITE DEBRIS
Your satellite tracking list
Your tracking list is empty




NASA's NSSDC Master Catalog

Two Line Element Set (TLE):
1 37391U 11014B   25336.22448648 0.00000000  00000-0  00000-0 0    00
2 37391  63.4218  64.5097 0324053 358.6119   1.3881 13.40979051    00
Source of the keplerian elements: McCants